Change the Weather History Date:

Sunday, April 14, 2013

  Actual Average Record
Temperature  
Mean Temperature 16 °F 19 °F  
Max Temperature 28 °F 26 °F 45 °F (1940)
Min Temperature 3 °F 12 °F -21 °F (1927)
Degree Days  
Heating Degree Days 49 46  
Month to date heating degree days 758 686  
Since 1 July heating degree days 12047 11664  
Cooling Degree Days 0    
Month to date cooling degree days 0  
Year to date cooling degree days 0  
Moisture  
Dew Point 17 °F    
Average Humidity 0    
Maximum Humidity 0    
Minimum Humidity 0    
Precipitation  
Precipitation T in 0.02 in 0.30 in (1965)
Month to date precipitation 0.25 0.32  
Year to date precipitation 2.41 2.84  
Snow  
Snow T in 0.30 in 1.70 in (1978)
Month to date snowfall 3.9 3.9  
Since 1 July snowfall 54.3 69.5  
Snow Depth 22.00 in    
Sea Level Pressure  
Sea Level Pressure 30.62 in    
Wind  
Wind Speed 5 mph (West)    
Max Wind Speed 20 mph    
Max Gust Speed 24 mph    
Visibility 9 miles    
Events Snow    
T = Trace of Precipitation, MM = Missing Value Source: NWS Daily Summary

Daily Weather History Graph

Daily Weather History Graph

Search for Another Location

Airport or City:

Trip Planner

Search our weather history database for the weather conditions in past years. The results will help you decide how hot, cold, wet, or windy it might be!

Date:

Astronomy

Apr. 14, 2013 Rise Set
Actual Time 7:30 AM AKDT 10:35 PM AKDT
Civil Twilight 6:34 AM AKDT 11:32 PM AKDT
Nautical Twilight 5:11 AM AKDT 12:57 AM AKDT
Astronomical Twilight 3:34 AM AKDT 2:29 AM AKDT
Moon 9:00 AM AKDT (4/14) 3:23 AM AKDT (4/14)
Length of Visible Light 16h 58m
Length of Day
15h 05m
Waxing Crescent, 18% of the Moon is Illuminated
Apr 14
Waxing Crescent
Apr 18
First Quarter
Apr 25
Full
May 2
Last Quarter
May 9
New

Hourly Weather History & Observations

Time (AKDT) Temp. Windchill Dew Point Humidity Pressure Visibility Wind Dir Wind Speed Gust Speed Precip Events Conditions
12:53 AM 27.0 °F - 25.0 °F 92% 30.46 in 5.0 mi Calm Calm - N/A   Overcast
1:12 AM 26.6 °F - 24.8 °F 93% 30.47 in 7.0 mi Calm Calm - N/A   Overcast
1:53 AM 27.0 °F 19.5 °F 26.1 °F 96% 30.48 in 4.0 mi WSW 6.9 mph - 0.00 in Snow Light Snow
2:53 AM 28.0 °F 18.1 °F 27.0 °F 96% 30.48 in 4.0 mi West 11.5 mph - 0.00 in   Overcast
3:13 AM 28.4 °F 19.1 °F 26.6 °F 93% 30.48 in 4.0 mi West 10.4 mph - 0.00 in Snow Light Snow
3:36 AM 28.4 °F 18.0 °F 26.6 °F 93% 30.49 in 10.0 mi West 12.7 mph - 0.00 in   Overcast
3:53 AM 28.0 °F 17.5 °F 27.0 °F 96% 30.49 in 10.0 mi West 12.7 mph - 0.00 in   Overcast
4:45 AM 28.4 °F 18.0 °F 26.6 °F 93% 30.51 in 7.0 mi WNW 12.7 mph - N/A   Overcast
4:53 AM 27.0 °F 18.0 °F 26.1 °F 96% 30.51 in 6.0 mi WNW 9.2 mph - 0.00 in Snow Light Snow
5:53 AM 27.0 °F 18.0 °F 25.0 °F 92% 30.52 in 10.0 mi WNW 9.2 mph - 0.00 in   Overcast
6:08 AM 26.6 °F 15.7 °F 24.8 °F 93% 30.52 in 10.0 mi NW 12.7 mph - N/A   Overcast
6:53 AM 25.0 °F 14.8 °F 21.9 °F 88% 30.53 in 10.0 mi NW 10.4 mph - N/A   Mostly Cloudy
7:53 AM 24.1 °F 12.0 °F 18.0 °F 77% 30.54 in 10.0 mi West 13.8 mph - N/A   Mostly Cloudy
8:53 AM 21.0 °F 10.6 °F 16.0 °F 81% 30.57 in 10.0 mi WNW 9.2 mph - N/A   Mostly Cloudy
9:17 AM 21.2 °F - 15.8 °F 80% 30.58 in 10.0 mi Calm Calm - N/A   Mostly Cloudy
9:53 AM 21.9 °F 17.2 °F 12.9 °F 68% 30.60 in 10.0 mi NW 3.5 mph - N/A   Scattered Clouds
10:53 AM 19.9 °F - 12.9 °F 74% 30.61 in 10.0 mi Calm Calm - N/A   Scattered Clouds
11:53 AM 19.0 °F 11.1 °F 12.9 °F 77% 30.64 in 10.0 mi ESE 5.8 mph - N/A   Scattered Clouds
12:53 PM 18.0 °F 12.7 °F 12.0 °F 78% 30.67 in 10.0 mi SSE 3.5 mph - N/A   Scattered Clouds
1:53 PM 23.0 °F 18.4 °F 14.0 °F 68% 30.69 in 10.0 mi NNW 3.5 mph - N/A   Scattered Clouds
2:53 PM 21.9 °F 17.2 °F 15.1 °F 75% 30.70 in 10.0 mi SW 3.5 mph - N/A   Scattered Clouds
3:53 PM 21.0 °F - 15.1 °F 78% 30.72 in 10.0 mi Calm Calm - N/A   Scattered Clouds
4:53 PM 21.9 °F 17.2 °F 14.0 °F 72% 30.74 in 10.0 mi SSW 3.5 mph - N/A   Scattered Clouds
5:53 PM 21.9 °F - 14.0 °F 72% 30.74 in 10.0 mi Calm Calm - N/A   Partly Cloudy
6:53 PM 21.0 °F 16.2 °F 12.9 °F 71% 30.75 in 10.0 mi East 3.5 mph - N/A   Scattered Clouds
7:53 PM 19.9 °F 13.4 °F 10.9 °F 68% 30.76 in 10.0 mi East 4.6 mph - N/A   Clear
8:53 PM 18.0 °F - 10.0 °F 71% 30.76 in 10.0 mi Calm Calm - N/A   Partly Cloudy
9:53 PM 15.1 °F - 7.0 °F 70% 30.78 in 10.0 mi Calm Calm - N/A   Clear
10:53 PM 5.0 °F - 1.9 °F 87% 30.80 in 10.0 mi Calm Calm - N/A   Clear
11:53 PM 7.0 °F - 1.9 °F 80% 30.82 in 10.0 mi Calm Calm - N/A   Clear